Notices

What's New in latest Release from April 7th, 2021:

- Updated Glossary, including Speed of Maximum Gust, and Total Hourly Precipitation

- Updated national and regional climate services offices contacts and prices information

- Addition of station inventory lists for 1981-2010, 1971-2000, and 1961-1990 Normals.

If you haven't already, please take our survey and provide feedback about our website: https://eccc.sondage-survey.ca/f/LanguageSelection.aspx?s=442ca660-fcf1-47c0-95a9-59707d6fd709

Hourly Data Report for December 08, 2018

CARBERRY CS
MANITOBA
Current Station Operator: ECCC - MSC

49°54'20.900" N
99°21'26.800" W
383.50 m
5010547
71170
WZE

Download Data

Hourly Data (December 2018)
Hourly Data Report for December 8, 2018
TIME
LST
Temp Definition
°C
Dew Point Definition
°C
Rel Hum Definition
%
Precip. Amount Definition
mm

Wind Dir Definition
10's deg

Wind Spd Definition
km/h
Visibility Definition
km
Stn Press Definition
kPa
Hmdx Definition


Wind Chill Definition


Weather Definition


00:00 -16.9 -18.7 86 0.0 22 6   97.76   -21 LegendNANA
01:00 -16.1 -17.9 86 0.0 19 11   97.72   -23 LegendNANA
02:00 -15.6 -17.5 86 0.0 20 9   97.71   -22 LegendNANA
03:00 -16.2 -18.1 85 0.0 19 10   97.65   -23 LegendNANA
04:00 -15.8 -17.7 85 0.0 18 11   97.61   -23 LegendNANA
05:00 -16.4 -18.4 84 0.0 19 8   97.55   -22 LegendNANA
06:00 -17.9 -20.4 81 0.0 21 6   97.51   -23 LegendNANA
07:00 -16.0 -17.8 86 0.0 18 12   97.49   -23 LegendNANA
08:00 -16.1 -18.2 84 0.0 18 11   97.47   -23 LegendNANA
09:00 -14.2 -16.4 83 0.0 18 16   97.47   -22 LegendNANA
10:00 -12.9 -15.6 80 0.0 16 7   97.50   -17 LegendNANA
11:00 -10.9 -14.7 74 0.0 19 7   97.53   -15 LegendNANA
12:00 -8.8 -13.3 70 0.0 19 11   97.47   -14 LegendNANA
13:00 -6.0 -12.1 62 0.0 22 12   97.40   -11 LegendNANA
14:00 -5.7 -12.2 60 0.0 23 17   97.35   -12 LegendNANA
15:00 -6.2 -12.4 61 0.0 23 15   97.33   -12 LegendNANA
16:00 -9.8 -14.3 70 0.0 28 17   97.39   -17 LegendNANA
17:00 -10.7 -14.1 76 0.0 24 13   97.44   -17 LegendNANA
18:00 -15.1 -17.5 82 0.0 28 14   97.54   -23 LegendNANA
19:00 -13.3 -16.1 79 0.0 23 16   97.52   -21 LegendNANA
20:00 -13.7 -16.2 81 0.0 24 17   97.51   -22 LegendNANA
21:00 -14.6 -17.0 82 0.0 26 21   97.53   -24 LegendNANA
22:00 -15.3 -17.7 82 0.0 25 15   97.56   -23 LegendNANA
23:00 -15.2 -17.6 82 0.0 24 15   97.56   -23 LegendNANA

Notes on Data Quality.

Legend

  • E = Estimated
  • M = Missing
  • NA = Not Available*
  • [empty] = Indicates an unobserved value
Date modified: